DAL356 KBNA-KLAX

Flight info

Callsign DAL356
Flight time 4h 30m
Altitude 32000
Route DANLS4 TPEEE ELD MULQN FDRER EWM J4 WLVRN ESTWD HLYWD1
Aircraft B38M/M-SDE1FGHILORVWXY/HB1

Departure

Time 2026-04-25 20:18
Airport Nashville International Airport (KBNA)

Arrival

Time 2026-04-26 00:48
Airport Los Angeles International Airport (KLAX)
Time Latitude Longitude Altitude Speed Heading
2026-04-25 20:01 36.12848 -86.66899 572 ft 0 kts 212°
2026-04-25 20:06 36.12851 -86.66897 575 ft 3 kts 212°
2026-04-25 20:06 36.12865 -86.66885 571 ft 4 kts 205°
2026-04-25 20:06 36.12889 -86.66880 571 ft 4 kts 162°
2026-04-25 20:06 36.12905 -86.66892 574 ft 1 kts 131°
2026-04-25 20:07 36.12907 -86.66895 571 ft 0 kts 131°
2026-04-25 20:11 36.12903 -86.66890 571 ft 2 kts 131°
2026-04-25 20:11 36.12886 -86.66866 571 ft 5 kts 131°
2026-04-25 20:11 36.12851 -86.66817 575 ft 10 kts 131°
2026-04-25 20:11 36.12800 -86.66762 573 ft 11 kts 158°
2026-04-25 20:12 36.12733 -86.66791 572 ft 12 kts 226°
2026-04-25 20:12 36.12666 -86.66876 576 ft 13 kts 218°
2026-04-25 20:12 36.12584 -86.66888 572 ft 15 kts 195°
2026-04-25 20:12 36.12551 -86.66904 574 ft 17 kts 203°
2026-04-25 20:13 36.12405 -86.66896 570 ft 15 kts 133°
2026-04-25 20:13 36.12340 -86.66776 570 ft 18 kts 108°
2026-04-25 20:13 36.12301 -86.66621 577 ft 19 kts 107°
2026-04-25 20:13 36.12257 -86.66522 579 ft 9 kts 168°
2026-04-25 20:14 36.12194 -86.66543 581 ft 12 kts 195°
2026-04-25 20:14 36.12093 -86.66580 581 ft 17 kts 197°
2026-04-25 20:14 36.11963 -86.66631 583 ft 21 kts 198°
2026-04-25 20:14 36.11821 -86.66686 591 ft 21 kts 198°
2026-04-25 20:15 36.11687 -86.66742 598 ft 19 kts 198°
2026-04-25 20:15 36.11561 -86.66793 602 ft 19 kts 198°
2026-04-25 20:15 36.11443 -86.66841 617 ft 17 kts 198°
2026-04-25 20:15 36.11346 -86.66873 610 ft 12 kts 179°
2026-04-25 20:16 36.11329 -86.66868 606 ft 0 kts 150°
2026-04-25 20:16 36.11328 -86.66867 606 ft 1 kts 150°
2026-04-25 20:16 36.11300 -86.66833 605 ft 12 kts 120°
2026-04-25 20:17 36.11330 -86.66743 617 ft 14 kts 25°
2026-04-25 20:17 36.11508 -86.66672 609 ft 57 kts 17°
2026-04-25 20:17 36.12139 -86.66420 585 ft 132 kts 18°
2026-04-25 20:17 36.13224 -86.65997 603 ft 190 kts 16°
2026-04-25 20:18 36.14566 -86.65474 1203 ft 208 kts 15°
2026-04-25 20:18 36.15942 -86.65036 2418 ft 203 kts
2026-04-25 20:18 36.17428 -86.65104 2823 ft 236 kts 346°
2026-04-25 20:18 36.18912 -86.66063 3568 ft 243 kts 331°
2026-04-25 20:19 36.20431 -86.67034 3932 ft 247 kts 336°
2026-04-25 20:19 36.21975 -86.67920 4642 ft 243 kts 337°
2026-04-25 20:19 36.23514 -86.68762 5517 ft 247 kts 338°
2026-04-25 20:19 36.25108 -86.69611 6368 ft 252 kts 338°
2026-04-25 20:20 36.26709 -86.70552 6764 ft 257 kts 327°
2026-04-25 20:20 36.27920 -86.72141 6818 ft 256 kts 300°
2026-04-25 20:20 36.28459 -86.74240 6936 ft 260 kts 276°
2026-04-25 20:20 36.28342 -86.76476 6962 ft 263 kts 262°
2026-04-25 20:21 36.28030 -86.78775 7014 ft 277 kts 261°
2026-04-25 20:21 36.27688 -86.81151 6964 ft 282 kts 261°
2026-04-25 20:21 36.27322 -86.83532 7334 ft 285 kts 256°
2026-04-25 20:21 36.26526 -86.85767 8260 ft 287 kts 241°
2026-04-25 20:22 36.25538 -86.87949 9029 ft 293 kts 242°
2026-04-25 20:22 36.25200 -86.88696 9305 ft 294 kts 241°
2026-04-25 20:22 36.23519 -86.92381 10684 ft 297 kts 241°
2026-04-25 20:22 36.22498 -86.94607 11522 ft 298 kts 241°
2026-04-25 20:23 36.21471 -86.96841 12316 ft 299 kts 241°
2026-04-25 20:23 36.20440 -86.99076 13165 ft 298 kts 241°
2026-04-25 20:23 36.19408 -87.01318 13908 ft 302 kts 241°
2026-04-25 20:23 36.18381 -87.03546 14661 ft 303 kts 241°
2026-04-25 20:24 36.17329 -87.05823 15361 ft 306 kts 241°
2026-04-25 20:24 36.16269 -87.08119 16081 ft 308 kts 242°
2026-04-25 20:24 36.15202 -87.10426 16765 ft 310 kts 242°
2026-04-25 20:24 36.14128 -87.12750 17427 ft 312 kts 242°
2026-04-25 20:25 36.13044 -87.15091 18042 ft 315 kts 242°
2026-04-25 20:25 36.11950 -87.17453 18646 ft 318 kts 242°
2026-04-25 20:25 36.10849 -87.19829 19276 ft 319 kts 242°
2026-04-25 20:25 36.09913 -87.22260 19845 ft 318 kts 255°
2026-04-25 20:26 36.09358 -87.24906 20404 ft 320 kts 257°
2026-04-25 20:26 36.08801 -87.27577 20944 ft 321 kts 257°
2026-04-25 20:26 36.08251 -87.30258 21512 ft 322 kts 257°
2026-04-25 20:26 36.07705 -87.32948 22060 ft 323 kts 258°
2026-04-25 20:27 36.07159 -87.35647 22560 ft 325 kts 258°
2026-04-25 20:27 36.06610 -87.38364 23072 ft 326 kts 258°
2026-04-25 20:27 36.06061 -87.41082 23581 ft 326 kts 258°
2026-04-25 20:27 36.05517 -87.43771 24048 ft 328 kts 258°
2026-04-25 20:28 36.04962 -87.46510 24505 ft 329 kts 258°
2026-04-25 20:28 36.04404 -87.49264 24913 ft 331 kts 258°
2026-04-25 20:28 36.03843 -87.52029 25363 ft 332 kts 258°
2026-04-25 20:28 36.03281 -87.54796 25775 ft 333 kts 258°
2026-04-25 20:29 36.02714 -87.57579 26147 ft 335 kts 258°
2026-04-25 20:29 36.02145 -87.60371 26571 ft 335 kts 258°
2026-04-25 20:29 36.01577 -87.63156 27052 ft 333 kts 259°
2026-04-25 20:29 36.01020 -87.65883 27520 ft 331 kts 259°
2026-04-25 20:30 36.00458 -87.68626 27971 ft 329 kts 259°
2026-04-25 20:30 35.99899 -87.71361 28395 ft 327 kts 259°
2026-04-25 20:30 35.99341 -87.74079 28785 ft 326 kts 259°
2026-04-25 20:30 35.98789 -87.76771 29222 ft 322 kts 259°
2026-04-25 20:31 35.98238 -87.79451 29542 ft 322 kts 259°
2026-04-25 20:31 35.97687 -87.82125 29897 ft 320 kts 259°
2026-04-25 20:31 35.97139 -87.84786 30225 ft 319 kts 259°
2026-04-25 20:31 35.96593 -87.87434 30543 ft 318 kts 259°
2026-04-25 20:32 35.96055 -87.90036 30854 ft 316 kts 259°
2026-04-25 20:32 35.95512 -87.92662 31163 ft 315 kts 259°
2026-04-25 20:32 35.94971 -87.95272 31448 ft 313 kts 259°
2026-04-25 20:32 35.94432 -87.97875 31701 ft 312 kts 259°
2026-04-25 20:33 35.93892 -88.00474 31884 ft 315 kts 259°
2026-04-25 20:33 35.93345 -88.03110 31900 ft 319 kts 259°
2026-04-25 20:33 35.92609 -88.06643 31882 ft 317 kts 259°
2026-04-25 20:34 35.91148 -88.13652 31891 ft 317 kts 259°
2026-04-25 20:34 35.90055 -88.18879 31879 ft 317 kts 259°
2026-04-25 20:35 35.88952 -88.24143 31890 ft 317 kts 259°
2026-04-25 20:35 35.88279 -88.29571 31904 ft 325 kts 269°
2026-04-25 20:36 35.87931 -88.35261 31892 ft 339 kts 267°
2026-04-25 20:36 35.87522 -88.41172 31892 ft 352 kts 267°
2026-04-25 20:37 35.87088 -88.47262 31889 ft 366 kts 266°
2026-04-25 20:37 35.86631 -88.53617 31878 ft 378 kts 266°
2026-04-25 20:38 35.86155 -88.60179 31879 ft 391 kts 266°
2026-04-25 20:38 35.85664 -88.66901 31883 ft 402 kts 266°
2026-04-25 20:39 35.85156 -88.73791 31884 ft 404 kts 266°
2026-04-25 20:39 35.84815 -88.78396 31887 ft 404 kts 266°
2026-04-25 20:40 35.84078 -88.84060 31874 ft 407 kts 252°
2026-04-25 20:40 35.82729 -88.87148 31900 ft 414 kts 238°
2026-04-25 20:40 35.79239 -88.92848 31894 ft 417 kts 237°
2026-04-25 20:41 35.75729 -88.98471 31898 ft 416 kts 237°
2026-04-25 20:41 35.72179 -89.04105 31895 ft 416 kts 237°
2026-04-25 20:42 35.68625 -89.09731 31896 ft 416 kts 237°
2026-04-25 20:42 35.65070 -89.15345 31898 ft 416 kts 237°
2026-04-25 20:43 35.61517 -89.20951 31899 ft 416 kts 237°
2026-04-25 20:43 35.57979 -89.26522 31900 ft 416 kts 237°
2026-04-25 20:44 35.54420 -89.32118 31899 ft 416 kts 236°
2026-04-25 20:44 35.50858 -89.37710 31898 ft 416 kts 236°
2026-04-25 20:45 35.47292 -89.43298 31898 ft 416 kts 236°
2026-04-25 20:45 35.43749 -89.48842 31897 ft 416 kts 236°
2026-04-25 20:46 35.40177 -89.54423 31896 ft 417 kts 236°
2026-04-25 20:46 35.36595 -89.60009 31891 ft 417 kts 236°
2026-04-25 20:47 35.33012 -89.65589 31889 ft 417 kts 236°
2026-04-25 20:47 35.29427 -89.71162 31895 ft 417 kts 236°
2026-04-25 20:48 35.25862 -89.76696 31898 ft 417 kts 236°
2026-04-25 20:48 35.22272 -89.82260 31898 ft 416 kts 236°
2026-04-25 20:49 35.19290 -89.86875 31899 ft 416 kts 236°
2026-04-25 20:49 35.15091 -89.93363 31896 ft 416 kts 236°
2026-04-25 20:50 35.11522 -89.98867 31897 ft 416 kts 236°
2026-04-25 20:50 35.07927 -90.04404 31903 ft 416 kts 236°
2026-04-25 20:51 35.04936 -90.09003 31906 ft 416 kts 236°
2026-04-25 20:51 35.01332 -90.14537 31908 ft 417 kts 236°
2026-04-25 20:52 34.98331 -90.19139 31906 ft 417 kts 236°
2026-04-25 20:52 34.94107 -90.25605 31906 ft 416 kts 236°
2026-04-25 20:53 34.90517 -90.31092 31904 ft 417 kts 236°
2026-04-25 20:53 34.86892 -90.36624 31898 ft 418 kts 236°
2026-04-25 20:54 34.83263 -90.42152 31897 ft 418 kts 236°
2026-04-25 20:54 34.79629 -90.47680 31898 ft 418 kts 236°
2026-04-25 20:55 34.75997 -90.53196 31896 ft 418 kts 236°
2026-04-25 20:55 34.72387 -90.58670 31892 ft 418 kts 236°
2026-04-25 20:56 34.68746 -90.64182 31896 ft 418 kts 236°
2026-04-25 20:56 34.65105 -90.69686 31909 ft 418 kts 236°
2026-04-25 20:57 34.61458 -90.75190 31904 ft 418 kts 235°
2026-04-25 20:57 34.57835 -90.80650 31905 ft 418 kts 236°
2026-04-25 20:58 34.54182 -90.86147 31905 ft 418 kts 236°
2026-04-25 20:58 34.50524 -90.91643 31907 ft 419 kts 235°
2026-04-25 20:59 34.46864 -90.97133 31907 ft 419 kts 235°
2026-04-25 20:59 34.43223 -91.02585 31907 ft 419 kts 235°
2026-04-25 21:00 34.40150 -91.07180 31906 ft 419 kts 235°
2026-04-25 21:01 34.34047 -91.16290 31915 ft 419 kts 235°
2026-04-25 21:01 34.30369 -91.21769 31915 ft 419 kts 236°
2026-04-25 21:02 34.26694 -91.27235 31910 ft 419 kts 236°
2026-04-25 21:02 34.23037 -91.32665 31906 ft 419 kts 236°
2026-04-25 21:03 34.19348 -91.38135 31907 ft 420 kts 236°
2026-04-25 21:03 34.15652 -91.43607 31904 ft 421 kts 236°
2026-04-25 21:04 34.11945 -91.49086 31898 ft 421 kts 236°
2026-04-25 21:04 34.08264 -91.54520 31906 ft 421 kts 235°
2026-04-25 21:05 34.04554 -91.59988 31907 ft 421 kts 236°
2026-04-25 21:05 34.00841 -91.65453 31906 ft 421 kts 236°
2026-04-25 21:06 33.97121 -91.70916 31903 ft 422 kts 236°
2026-04-25 21:06 33.93399 -91.76377 31891 ft 422 kts 236°
2026-04-25 21:07 33.89698 -91.81797 31891 ft 422 kts 236°
2026-04-25 21:07 33.85970 -91.87250 31885 ft 422 kts 236°
2026-04-25 21:08 33.82240 -91.92697 31880 ft 422 kts 236°
2026-04-25 21:08 33.78505 -91.98144 31877 ft 422 kts 236°
2026-04-25 21:09 33.72925 -92.06264 31878 ft 422 kts 235°
2026-04-25 21:09 33.69183 -92.11701 31880 ft 423 kts 235°
2026-04-25 21:10 33.65431 -92.17143 31882 ft 423 kts 235°
2026-04-25 21:10 33.61679 -92.22577 31874 ft 423 kts 235°
2026-04-25 21:11 33.57927 -92.28003 31873 ft 423 kts 236°
2026-04-25 21:11 33.54195 -92.33391 31871 ft 423 kts 236°
2026-04-25 21:12 33.50440 -92.38807 31868 ft 422 kts 236°
2026-04-25 21:12 33.47313 -92.43309 31871 ft 423 kts 236°
2026-04-25 21:13 33.42908 -92.49646 31868 ft 424 kts 236°
2026-04-25 21:13 33.39162 -92.55026 31872 ft 424 kts 236°
2026-04-25 21:14 33.35389 -92.60436 31868 ft 423 kts 236°
2026-04-25 21:14 33.31613 -92.65841 31871 ft 423 kts 236°
2026-04-25 21:15 33.27833 -92.71246 31878 ft 424 kts 236°
2026-04-25 21:15 33.26199 -92.74116 31866 ft 413 kts 250°
2026-04-25 21:15 33.25339 -92.77290 31886 ft 405 kts 262°
2026-04-25 21:16 33.24242 -92.83923 31870 ft 407 kts 262°
2026-04-25 21:16 33.23212 -92.90568 31871 ft 406 kts 263°
2026-04-25 21:17 33.22211 -92.97207 31871 ft 406 kts 263°
2026-04-25 21:17 33.21213 -93.03841 31860 ft 406 kts 263°
2026-04-25 21:18 33.20218 -93.10423 31860 ft 405 kts 263°
2026-04-25 21:18 33.19215 -93.17047 31851 ft 405 kts 263°
2026-04-25 21:19 33.18208 -93.23657 31853 ft 404 kts 263°
2026-04-25 21:19 33.17199 -93.30269 31851 ft 405 kts 263°
2026-04-25 21:20 33.16357 -93.35762 31847 ft 405 kts 263°
2026-04-25 21:20 33.15176 -93.43437 31858 ft 404 kts 263°
2026-04-25 21:21 33.14159 -93.50026 31853 ft 404 kts 263°
2026-04-25 21:21 33.13136 -93.56619 31858 ft 404 kts 263°
2026-04-25 21:22 33.12119 -93.63164 31860 ft 404 kts 263°
2026-04-25 21:22 33.11091 -93.69748 31865 ft 404 kts 263°
2026-04-25 21:23 33.10059 -93.76336 31862 ft 404 kts 263°
2026-04-25 21:23 33.09024 -93.82918 31863 ft 404 kts 263°
2026-04-25 21:24 33.07995 -93.89441 31850 ft 403 kts 263°
2026-04-25 21:24 33.06955 -93.96006 31847 ft 403 kts 263°
2026-04-25 21:25 33.05910 -94.02581 31852 ft 404 kts 263°
2026-04-25 21:25 33.04867 -94.09126 31853 ft 400 kts 263°
2026-04-25 21:26 33.03832 -94.15590 31846 ft 400 kts 263°
2026-04-25 21:26 33.02785 -94.22111 31846 ft 400 kts 263°
2026-04-25 21:27 33.01736 -94.28619 31854 ft 400 kts 263°
2026-04-25 21:27 33.00685 -94.35123 31848 ft 400 kts 263°
2026-04-25 21:28 32.99636 -94.41589 31839 ft 400 kts 263°
2026-04-25 21:28 32.98576 -94.48095 31837 ft 400 kts 263°
2026-04-25 21:29 32.97514 -94.54598 31838 ft 400 kts 262°
2026-04-25 21:29 32.96450 -94.61089 31835 ft 399 kts 262°
2026-04-25 21:30 32.95391 -94.67524 31843 ft 399 kts 262°
2026-04-25 21:30 32.94496 -94.72953 31852 ft 399 kts 262°
2026-04-25 21:31 32.93250 -94.80475 31833 ft 398 kts 262°
2026-04-25 21:31 32.92177 -94.86937 31834 ft 398 kts 262°
2026-04-25 21:32 32.91108 -94.93347 31833 ft 398 kts 262°
2026-04-25 21:32 32.90031 -94.99791 31835 ft 397 kts 262°
2026-04-25 21:33 32.88952 -95.06223 31830 ft 396 kts 262°
2026-04-25 21:33 32.87869 -95.12651 31829 ft 396 kts 262°
2026-04-25 21:34 32.86783 -95.19082 31826 ft 396 kts 262°
2026-04-25 21:34 32.85703 -95.25456 31820 ft 396 kts 262°
2026-04-25 21:35 32.84614 -95.31860 31814 ft 395 kts 262°
2026-04-25 21:35 32.83522 -95.38261 31805 ft 395 kts 262°
2026-04-25 21:36 32.82429 -95.44649 31806 ft 394 kts 262°
2026-04-25 21:36 32.81340 -95.50993 31797 ft 394 kts 262°
2026-04-25 21:37 32.80427 -95.56299 31796 ft 394 kts 262°
2026-04-25 21:37 32.79141 -95.63752 31796 ft 393 kts 262°
2026-04-25 21:38 32.78041 -95.70112 31795 ft 393 kts 262°
2026-04-25 21:38 32.76944 -95.76428 31803 ft 393 kts 262°
2026-04-25 21:39 32.75836 -95.82794 31806 ft 393 kts 262°
2026-04-25 21:39 32.75578 -95.85995 31797 ft 388 kts 274°
2026-04-25 21:39 32.75665 -95.89200 31790 ft 389 kts 272°
2026-04-25 21:40 32.75781 -95.95630 31804 ft 390 kts 273°
2026-04-25 21:40 32.75922 -96.02059 31807 ft 389 kts 273°
2026-04-25 21:41 32.76063 -96.08419 31802 ft 387 kts 273°
2026-04-25 21:41 32.76203 -96.14816 31807 ft 387 kts 273°
2026-04-25 21:42 32.76339 -96.21209 31807 ft 387 kts 273°
2026-04-25 21:42 32.76471 -96.27607 31805 ft 387 kts 273°
2026-04-25 21:43 32.76600 -96.33971 31808 ft 388 kts 273°
2026-04-25 21:43 32.76727 -96.40379 31801 ft 388 kts 273°
2026-04-25 21:44 32.76850 -96.46787 31803 ft 388 kts 273°
2026-04-25 21:45 32.77029 -96.56394 31811 ft 388 kts 272°
2026-04-25 21:45 32.77144 -96.62761 31811 ft 388 kts 272°
2026-04-25 21:46 32.77255 -96.69166 31800 ft 388 kts 272°
2026-04-25 21:46 32.77364 -96.75571 31784 ft 388 kts 272°
2026-04-25 21:47 32.77469 -96.81975 31777 ft 388 kts 272°
2026-04-25 21:47 32.77571 -96.88337 31777 ft 388 kts 272°
2026-04-25 21:48 32.77669 -96.94747 31768 ft 388 kts 272°
2026-04-25 21:48 32.77765 -97.01153 31767 ft 387 kts 272°
2026-04-25 21:49 32.77857 -97.07556 31767 ft 388 kts 272°
2026-04-25 21:49 32.77946 -97.13921 31768 ft 388 kts 272°
2026-04-25 21:50 32.78032 -97.20333 31760 ft 388 kts 272°
2026-04-25 21:50 32.78114 -97.26745 31757 ft 388 kts 272°
2026-04-25 21:51 32.78193 -97.33152 31761 ft 388 kts 272°
2026-04-25 21:51 32.78269 -97.39517 31750 ft 388 kts 272°
2026-04-25 21:52 32.78342 -97.45930 31756 ft 388 kts 272°
2026-04-25 21:52 32.78411 -97.52341 31756 ft 388 kts 272°
2026-04-25 21:53 32.78478 -97.58756 31759 ft 388 kts 272°
2026-04-25 21:53 32.78540 -97.65120 31751 ft 388 kts 272°
2026-04-25 21:54 32.78600 -97.71536 31747 ft 388 kts 272°
2026-04-25 21:54 32.78657 -97.77956 31748 ft 389 kts 272°
2026-04-25 21:55 32.78710 -97.84384 31746 ft 389 kts 272°
2026-04-25 21:55 32.78760 -97.90764 31743 ft 389 kts 272°
2026-04-25 21:56 32.78807 -97.97201 31742 ft 389 kts 272°
2026-04-25 21:56 32.78850 -98.03633 31748 ft 389 kts 272°
2026-04-25 21:57 32.78891 -98.10066 31747 ft 389 kts 272°
2026-04-25 21:57 32.78928 -98.16496 31747 ft 389 kts 272°
2026-04-25 21:58 32.78962 -98.22886 31750 ft 389 kts 272°
2026-04-25 21:58 32.78991 -98.29317 31744 ft 389 kts 271°
2026-04-25 21:59 32.79019 -98.35748 31740 ft 389 kts 271°
2026-04-25 21:59 32.79042 -98.42176 31745 ft 389 kts 271°
2026-04-25 22:00 32.79072 -98.51764 31729 ft 388 kts 271°
2026-04-25 22:00 32.79088 -98.58180 31725 ft 388 kts 271°
2026-04-25 22:01 32.79100 -98.64598 31729 ft 388 kts 271°
2026-04-25 22:01 32.79108 -98.69928 31731 ft 388 kts 271°
2026-04-25 22:02 32.79115 -98.77381 31738 ft 388 kts 271°
2026-04-25 22:02 32.79117 -98.83794 31738 ft 388 kts 271°
2026-04-25 22:03 32.79117 -98.90210 31733 ft 388 kts 271°
2026-04-25 22:03 32.79113 -98.96618 31740 ft 388 kts 271°
2026-04-25 22:04 32.79106 -99.02988 31738 ft 388 kts 271°
2026-04-25 22:04 32.79097 -99.09396 31742 ft 388 kts 271°
2026-04-25 22:05 32.79085 -99.15807 31738 ft 388 kts 271°
2026-04-25 22:05 32.79070 -99.22217 31739 ft 388 kts 271°
2026-04-25 22:06 32.79051 -99.28578 31735 ft 388 kts 271°
2026-04-25 22:06 32.78904 -99.34982 31729 ft 389 kts 264°
2026-04-25 22:07 32.78341 -99.40280 31739 ft 389 kts 265°
2026-04-25 22:07 32.77627 -99.47745 31738 ft 389 kts 265°
2026-04-25 22:08 32.77030 -99.54093 31738 ft 389 kts 265°
2026-04-25 22:08 32.76428 -99.60480 31738 ft 389 kts 265°
2026-04-25 22:09 32.75822 -99.66868 31736 ft 389 kts 265°
2026-04-25 22:09 32.75217 -99.73218 31735 ft 389 kts 265°
2026-04-25 22:10 32.74605 -99.79602 31725 ft 389 kts 265°
2026-04-25 22:10 32.73990 -99.85986 31729 ft 389 kts 265°
2026-04-25 22:11 32.73371 -99.92374 31733 ft 389 kts 265°
2026-04-25 22:11 32.72754 -99.98717 31737 ft 389 kts 265°
2026-04-25 22:12 32.72129 -100.05103 31741 ft 389 kts 265°
2026-04-25 22:12 32.71607 -100.10407 31748 ft 389 kts 265°
2026-04-25 22:13 32.70869 -100.17866 31748 ft 389 kts 265°
2026-04-25 22:13 32.70235 -100.24241 31757 ft 389 kts 265°
2026-04-25 22:14 32.69601 -100.30576 31765 ft 389 kts 265°
2026-04-25 22:14 32.68961 -100.36950 31770 ft 389 kts 265°
2026-04-25 22:15 32.68317 -100.43326 31774 ft 389 kts 265°
2026-04-25 22:16 32.67343 -100.52902 31776 ft 390 kts 265°
2026-04-25 22:16 32.66694 -100.59251 31779 ft 390 kts 265°
2026-04-25 22:17 32.66037 -100.65637 31773 ft 390 kts 265°
2026-04-25 22:17 32.65377 -100.72026 31777 ft 390 kts 265°
2026-04-25 22:18 32.64713 -100.78413 31776 ft 390 kts 265°
2026-04-25 22:18 32.64051 -100.84752 31782 ft 390 kts 265°
2026-04-25 22:19 32.63381 -100.91137 31764 ft 390 kts 265°
2026-04-25 22:19 32.62709 -100.97512 31767 ft 389 kts 265°
2026-04-25 22:20 32.62033 -101.03890 31767 ft 390 kts 265°
2026-04-25 22:20 32.61359 -101.10226 31767 ft 390 kts 264°
2026-04-25 22:21 32.60676 -101.16607 31767 ft 390 kts 264°
2026-04-25 22:21 32.59990 -101.22986 31774 ft 390 kts 264°
2026-04-25 22:22 32.59301 -101.29362 31776 ft 390 kts 264°
2026-04-25 22:22 32.58613 -101.35698 31777 ft 390 kts 264°
2026-04-25 22:23 32.57917 -101.42079 31774 ft 390 kts 264°
2026-04-25 22:23 32.57218 -101.48458 31775 ft 390 kts 264°
2026-04-25 22:24 32.56515 -101.54838 31783 ft 390 kts 264°
2026-04-25 22:24 32.55814 -101.61177 31784 ft 390 kts 264°
2026-04-25 22:25 32.55104 -101.67556 31790 ft 390 kts 264°
2026-04-25 22:25 32.54392 -101.73937 31785 ft 391 kts 264°
2026-04-25 22:26 32.53676 -101.80319 31765 ft 391 kts 264°
2026-04-25 22:26 32.52956 -101.86698 31791 ft 391 kts 264°
2026-04-25 22:27 32.52239 -101.93034 31792 ft 391 kts 264°
2026-04-25 22:27 32.51512 -101.99418 31790 ft 391 kts 264°
2026-04-25 22:28 32.50781 -102.05812 31795 ft 391 kts 264°
2026-04-25 22:28 32.50049 -102.12190 31806 ft 391 kts 264°
2026-04-25 22:29 32.49318 -102.18524 31811 ft 391 kts 264°
2026-04-25 22:29 32.48579 -102.24904 31813 ft 391 kts 264°
2026-04-25 22:30 32.47464 -102.34466 31822 ft 391 kts 264°
2026-04-25 22:30 32.46844 -102.39762 31824 ft 391 kts 264°
2026-04-25 22:31 32.45974 -102.47157 31821 ft 390 kts 264°
2026-04-25 22:31 32.45224 -102.53504 31849 ft 389 kts 264°
2026-04-25 22:32 32.44470 -102.59855 31812 ft 389 kts 264°
2026-04-25 22:32 32.43712 -102.66206 31825 ft 389 kts 264°
2026-04-25 22:33 32.42958 -102.72506 31831 ft 389 kts 264°
2026-04-25 22:33 32.42194 -102.78850 31832 ft 389 kts 264°
2026-04-25 22:34 32.41429 -102.85182 31832 ft 388 kts 264°
2026-04-25 22:34 32.40662 -102.91502 31833 ft 388 kts 264°
2026-04-25 22:35 32.39897 -102.97784 31835 ft 388 kts 264°
2026-04-25 22:35 32.39125 -103.04092 31831 ft 387 kts 264°
2026-04-25 22:36 32.38350 -103.10391 31834 ft 387 kts 264°
2026-04-25 22:36 32.37573 -103.16687 31825 ft 386 kts 264°
2026-04-25 22:37 32.36795 -103.22969 31823 ft 386 kts 264°
2026-04-25 22:37 32.36017 -103.29216 31823 ft 386 kts 264°
2026-04-25 22:38 32.35232 -103.35498 31825 ft 386 kts 263°
2026-04-25 22:38 32.34444 -103.41782 31824 ft 386 kts 263°
2026-04-25 22:39 32.33653 -103.48060 31823 ft 386 kts 263°
2026-04-25 22:39 32.32865 -103.54282 31818 ft 385 kts 263°
2026-04-25 22:40 32.32069 -103.60548 31824 ft 385 kts 263°
2026-04-25 22:40 32.31271 -103.66811 31843 ft 385 kts 263°
2026-04-25 22:41 32.30468 -103.73081 31818 ft 385 kts 263°
2026-04-25 22:41 32.29662 -103.79348 31825 ft 386 kts 263°
2026-04-25 22:42 32.28859 -103.85570 31819 ft 385 kts 263°
2026-04-25 22:42 32.28048 -103.91822 31816 ft 385 kts 263°
2026-04-25 22:43 32.27235 -103.98073 31814 ft 385 kts 263°
2026-04-25 22:43 32.26418 -104.04325 31812 ft 385 kts 263°
2026-04-25 22:44 32.25603 -104.10534 31814 ft 385 kts 263°
2026-04-25 22:44 32.24780 -104.16783 31813 ft 385 kts 263°
2026-04-25 22:45 32.23954 -104.23030 31813 ft 385 kts 263°
2026-04-25 22:45 32.23127 -104.29270 31813 ft 385 kts 263°
2026-04-25 22:46 32.22300 -104.35471 31812 ft 385 kts 263°
2026-04-25 22:46 32.21465 -104.41714 31818 ft 385 kts 263°
2026-04-25 22:47 32.20628 -104.47954 31813 ft 384 kts 263°
2026-04-25 22:47 32.19793 -104.54148 31813 ft 384 kts 263°
2026-04-25 22:48 32.18951 -104.60374 31823 ft 384 kts 263°
2026-04-25 22:48 32.18105 -104.66600 31861 ft 384 kts 263°
2026-04-25 22:49 32.17259 -104.72812 31824 ft 383 kts 263°
2026-04-25 22:49 32.16406 -104.79045 31828 ft 384 kts 263°
2026-04-25 22:50 32.15559 -104.85212 31841 ft 383 kts 262°
2026-04-25 22:50 32.14703 -104.91416 31865 ft 382 kts 262°
2026-04-25 22:51 32.13846 -104.97616 31862 ft 383 kts 263°
2026-04-25 22:51 32.12985 -105.03811 31856 ft 382 kts 262°
2026-04-25 22:52 32.12131 -105.09943 31866 ft 382 kts 262°
2026-04-25 22:52 32.11407 -105.15119 31867 ft 381 kts 262°
2026-04-25 22:53 32.10401 -105.22287 31872 ft 381 kts 262°
2026-04-25 22:53 32.09533 -105.28444 31871 ft 381 kts 262°
2026-04-25 22:54 32.08662 -105.34601 31867 ft 380 kts 262°
2026-04-25 22:54 32.07796 -105.40699 31866 ft 380 kts 262°
2026-04-25 22:55 32.06921 -105.46843 31876 ft 380 kts 262°
2026-04-25 22:55 32.06044 -105.52978 31879 ft 379 kts 262°
2026-04-25 22:56 32.05165 -105.59105 31881 ft 379 kts 262°
2026-04-25 22:56 32.04293 -105.65178 31888 ft 379 kts 262°
2026-04-25 22:57 32.03410 -105.71296 31885 ft 378 kts 262°
2026-04-25 22:57 32.02526 -105.77399 31892 ft 377 kts 262°
2026-04-25 22:58 32.01646 -105.83457 31905 ft 378 kts 262°
2026-04-25 22:58 32.00759 -105.89552 31926 ft 377 kts 262°
2026-04-25 22:59 31.99866 -105.95652 31906 ft 377 kts 262°
2026-04-25 22:59 31.98971 -106.01754 31908 ft 378 kts 262°
2026-04-25 23:00 31.98080 -106.07806 31904 ft 378 kts 262°
2026-04-25 23:00 31.97181 -106.13894 31900 ft 378 kts 261°
2026-04-25 23:01 31.96277 -106.19989 31898 ft 377 kts 261°
2026-04-25 23:01 31.95390 -106.26092 31895 ft 377 kts 265°
2026-04-25 23:02 31.95468 -106.29160 31897 ft 377 kts 277°
2026-04-25 23:02 31.95819 -106.32184 31886 ft 379 kts 275°
2026-04-25 23:02 31.96509 -106.38334 31894 ft 380 kts 276°
2026-04-25 23:03 31.97224 -106.44488 31894 ft 379 kts 276°
2026-04-25 23:03 31.97940 -106.50637 31913 ft 380 kts 276°
2026-04-25 23:04 31.98536 -106.55772 31906 ft 380 kts 276°
2026-04-25 23:04 31.99365 -106.62941 31903 ft 381 kts 276°
2026-04-25 23:05 32.00077 -106.69129 31905 ft 381 kts 276°
2026-04-25 23:05 32.00784 -106.75303 31907 ft 380 kts 276°
2026-04-25 23:06 32.01488 -106.81475 31907 ft 380 kts 275°
2026-04-25 23:06 32.02185 -106.87608 31914 ft 381 kts 275°
2026-04-25 23:07 32.02885 -106.93798 31918 ft 381 kts 275°
2026-04-25 23:07 32.03580 -106.99981 31912 ft 381 kts 275°
2026-04-25 23:08 32.04271 -107.06143 31914 ft 383 kts 275°
2026-04-25 23:08 32.04965 -107.12359 31917 ft 382 kts 275°
2026-04-25 23:09 32.05655 -107.18569 31920 ft 383 kts 275°
2026-04-25 23:09 32.06344 -107.24809 31911 ft 384 kts 275°
2026-04-25 23:10 32.07030 -107.31042 31916 ft 384 kts 275°
2026-04-25 23:10 32.07709 -107.37243 31912 ft 384 kts 275°
2026-04-25 23:11 32.08391 -107.43498 31917 ft 385 kts 275°
2026-04-25 23:11 32.09069 -107.49746 31932 ft 384 kts 275°
2026-04-25 23:12 32.09746 -107.56007 31897 ft 385 kts 275°
2026-04-25 23:12 32.10416 -107.62241 31901 ft 386 kts 274°
2026-04-25 23:13 32.11090 -107.68530 31909 ft 386 kts 275°
2026-04-25 23:13 32.11758 -107.74811 31923 ft 386 kts 275°
2026-04-25 23:14 32.12424 -107.81099 31911 ft 387 kts 275°
2026-04-25 23:14 32.13085 -107.87358 31913 ft 387 kts 275°
2026-04-25 23:15 32.13746 -107.93661 31916 ft 387 kts 275°
2026-04-25 23:15 32.14404 -107.99957 31947 ft 387 kts 275°
2026-04-25 23:16 32.15054 -108.06208 31911 ft 386 kts 275°
2026-04-25 23:16 32.15704 -108.12502 31928 ft 387 kts 275°
2026-04-25 23:17 32.16352 -108.18791 31927 ft 385 kts 274°
2026-04-25 23:17 32.16996 -108.25078 31946 ft 386 kts 274°
2026-04-25 23:18 32.17636 -108.31356 31935 ft 384 kts 274°
2026-04-25 23:18 32.18268 -108.37586 31937 ft 385 kts 274°
2026-04-25 23:19 32.18901 -108.43863 31926 ft 385 kts 274°
2026-04-25 23:19 32.19531 -108.50139 31922 ft 385 kts 274°
2026-04-25 23:20 32.20157 -108.56411 31916 ft 385 kts 274°
2026-04-25 23:20 32.20777 -108.62642 31915 ft 385 kts 274°
2026-04-25 23:21 32.21397 -108.68912 31909 ft 384 kts 274°
2026-04-25 23:21 32.22013 -108.75173 31911 ft 384 kts 274°
2026-04-25 23:22 32.22626 -108.81437 31908 ft 384 kts 274°
2026-04-25 23:23 32.23534 -108.90778 31908 ft 383 kts 274°
2026-04-25 23:23 32.24138 -108.97029 31905 ft 383 kts 274°
2026-04-25 23:24 32.24740 -109.03284 31911 ft 383 kts 274°
2026-04-25 23:24 32.25338 -109.09523 31905 ft 382 kts 274°
2026-04-25 23:25 32.25928 -109.15717 31908 ft 382 kts 274°
2026-04-25 23:25 32.26519 -109.21945 31904 ft 381 kts 273°
2026-04-25 23:26 32.27609 -109.28073 31912 ft 388 kts 288°
2026-04-25 23:26 32.29644 -109.33996 31917 ft 389 kts 287°
2026-04-25 23:27 32.31686 -109.39886 31916 ft 390 kts 287°
2026-04-25 23:27 32.33754 -109.45813 31912 ft 389 kts 287°
2026-04-25 23:28 32.35818 -109.51730 31917 ft 389 kts 287°
2026-04-25 23:28 32.37878 -109.57647 31930 ft 389 kts 287°
2026-04-25 23:29 32.39940 -109.63577 31925 ft 390 kts 287°
2026-04-25 23:29 32.41984 -109.69471 31926 ft 390 kts 287°
2026-04-25 23:30 32.44039 -109.75404 31922 ft 389 kts 287°
2026-04-25 23:30 32.46090 -109.81335 31939 ft 389 kts 287°
2026-04-25 23:31 32.48136 -109.87264 31925 ft 389 kts 286°
2026-04-25 23:31 32.50179 -109.93197 31933 ft 389 kts 286°
2026-04-25 23:32 32.52206 -109.99094 31922 ft 389 kts 286°
2026-04-25 23:32 32.54245 -110.05035 31926 ft 389 kts 286°
2026-04-25 23:33 32.56279 -110.10972 31922 ft 389 kts 286°
2026-04-25 23:33 32.58309 -110.16908 31924 ft 389 kts 286°
2026-04-25 23:34 32.60323 -110.22807 31935 ft 389 kts 286°
2026-04-25 23:34 32.62349 -110.28754 31925 ft 389 kts 286°
2026-04-25 23:35 32.64370 -110.34700 31969 ft 389 kts 286°
2026-04-25 23:35 32.66387 -110.40628 31988 ft 387 kts 286°
2026-04-25 23:36 32.68386 -110.46536 31961 ft 388 kts 285°
2026-04-25 23:36 32.70394 -110.52477 31957 ft 388 kts 285°
2026-04-25 23:37 32.72399 -110.58417 31959 ft 388 kts 285°
2026-04-25 23:37 32.74405 -110.64369 31968 ft 388 kts 285°
2026-04-25 23:38 32.76401 -110.70304 31964 ft 386 kts 285°
2026-04-25 23:38 32.78378 -110.76191 31957 ft 386 kts 285°
2026-04-25 23:39 32.80366 -110.82125 31931 ft 386 kts 285°
2026-04-25 23:39 32.82350 -110.88057 31928 ft 386 kts 285°
2026-04-25 23:40 32.84332 -110.93995 31920 ft 387 kts 285°
2026-04-25 23:40 32.86303 -110.99909 31909 ft 387 kts 285°
2026-04-25 23:41 32.88284 -111.05863 31901 ft 387 kts 285°
2026-04-25 23:41 32.90260 -111.11816 31890 ft 387 kts 285°
2026-04-25 23:42 32.91902 -111.16768 31874 ft 387 kts 285°
2026-04-25 23:42 32.93877 -111.22742 31876 ft 388 kts 285°
2026-04-25 23:43 32.96171 -111.29688 31861 ft 388 kts 285°
2026-04-25 23:43 32.97807 -111.34651 31853 ft 388 kts 285°
2026-04-25 23:44 32.99774 -111.40631 31854 ft 388 kts 285°
2026-04-25 23:44 33.02055 -111.47580 31848 ft 388 kts 284°
2026-04-25 23:45 33.03700 -111.52598 31846 ft 388 kts 284°
2026-04-25 23:45 33.05650 -111.58558 31851 ft 388 kts 284°
2026-04-25 23:46 33.07606 -111.64550 31864 ft 388 kts 284°
2026-04-25 23:46 33.09878 -111.71523 31860 ft 389 kts 284°
2026-04-25 23:47 33.11502 -111.76516 31856 ft 388 kts 284°
2026-04-25 23:47 33.13449 -111.82516 31848 ft 388 kts 284°
2026-04-25 23:48 33.15394 -111.88519 31847 ft 388 kts 284°
2026-04-25 23:48 33.17338 -111.94528 31838 ft 388 kts 284°
2026-04-25 23:49 33.19265 -112.00498 31837 ft 388 kts 284°
2026-04-25 23:49 33.21204 -112.06520 31845 ft 390 kts 284°
2026-04-25 23:50 33.23146 -112.12558 31836 ft 389 kts 284°
2026-04-25 23:50 33.25085 -112.18600 31833 ft 390 kts 284°
2026-04-25 23:51 33.27024 -112.24655 31830 ft 390 kts 284°
2026-04-25 23:51 33.28948 -112.30675 31836 ft 390 kts 284°
2026-04-25 23:52 33.30882 -112.36738 31828 ft 390 kts 284°
2026-04-25 23:52 33.32811 -112.42796 31851 ft 390 kts 284°
2026-04-25 23:53 33.34736 -112.48855 31837 ft 390 kts 284°
2026-04-25 23:53 33.36650 -112.54884 31836 ft 391 kts 284°
2026-04-25 23:54 33.38576 -112.60965 31833 ft 391 kts 284°
2026-04-25 23:54 33.40497 -112.67038 31835 ft 390 kts 284°
2026-04-25 23:55 33.42414 -112.73115 31831 ft 390 kts 284°
2026-04-25 23:55 33.44317 -112.79157 31831 ft 390 kts 284°
2026-04-25 23:56 33.46377 -112.85194 31835 ft 393 kts 286°
2026-04-25 23:56 33.48535 -112.91205 31830 ft 393 kts 286°
2026-04-25 23:57 33.50684 -112.97215 31831 ft 392 kts 285°
2026-04-25 23:57 33.52818 -113.03195 31825 ft 394 kts 285°
2026-04-25 23:58 33.54971 -113.09236 31834 ft 394 kts 285°
2026-04-25 23:58 33.57113 -113.15269 31831 ft 394 kts 285°
2026-04-25 23:59 33.59258 -113.21313 31831 ft 394 kts 285°
2026-04-25 23:59 33.61400 -113.27363 31832 ft 395 kts 285°
2026-04-26 00:00 33.63545 -113.33430 31831 ft 395 kts 285°
2026-04-26 00:00 33.65674 -113.39465 31824 ft 396 kts 285°
2026-04-26 00:01 33.67816 -113.45548 31822 ft 395 kts 285°
2026-04-26 00:01 33.69957 -113.51639 31821 ft 396 kts 285°
2026-04-26 00:02 33.72097 -113.57740 31824 ft 397 kts 285°
2026-04-26 00:02 33.74225 -113.63815 31824 ft 397 kts 285°
2026-04-26 00:03 33.76361 -113.69929 31809 ft 397 kts 285°
2026-04-26 00:03 33.78498 -113.76051 31805 ft 398 kts 285°
2026-04-26 00:04 33.80616 -113.82193 31803 ft 398 kts 285°
2026-04-26 00:04 33.82713 -113.88353 31805 ft 398 kts 285°
2026-04-26 00:05 33.84809 -113.94517 31801 ft 398 kts 285°
2026-04-26 00:05 33.86885 -114.00635 31788 ft 398 kts 285°
2026-04-26 00:06 33.88971 -114.06794 31782 ft 397 kts 285°
2026-04-26 00:06 33.90804 -114.13013 31776 ft 387 kts 275°
2026-04-26 00:07 33.91878 -114.19388 31771 ft 389 kts 276°
2026-04-26 00:07 33.92960 -114.25730 31774 ft 389 kts 276°
2026-04-26 00:08 33.94042 -114.32118 31778 ft 389 kts 276°
2026-04-26 00:08 33.95119 -114.38501 31773 ft 389 kts 276°
2026-04-26 00:09 33.96194 -114.44893 31768 ft 389 kts 276°
2026-04-26 00:09 33.97259 -114.51249 31769 ft 391 kts 276°
2026-04-26 00:10 33.98329 -114.57654 31767 ft 390 kts 276°
2026-04-26 00:10 33.99399 -114.64077 31769 ft 391 kts 276°
2026-04-26 00:11 34.00466 -114.70506 31772 ft 391 kts 276°
2026-04-26 00:11 34.01536 -114.76978 31771 ft 395 kts 276°
2026-04-26 00:12 34.02601 -114.83442 31776 ft 396 kts 276°
2026-04-26 00:12 34.03672 -114.89963 31775 ft 397 kts 276°
2026-04-26 00:13 34.04744 -114.96505 31782 ft 398 kts 276°
2026-04-26 00:13 34.05815 -115.03063 31781 ft 399 kts 276°
2026-04-26 00:14 34.06879 -115.09593 31784 ft 399 kts 276°
2026-04-26 00:14 34.07947 -115.16173 31785 ft 400 kts 276°
2026-04-26 00:15 34.09016 -115.22773 31802 ft 401 kts 276°
2026-04-26 00:15 34.10082 -115.29383 31798 ft 402 kts 276°
2026-04-26 00:16 34.11145 -115.36003 31797 ft 402 kts 275°
2026-04-26 00:16 34.12201 -115.42589 31803 ft 398 kts 274°
2026-04-26 00:17 34.13241 -115.49109 31805 ft 399 kts 274°
2026-04-26 00:17 34.14286 -115.55686 31812 ft 398 kts 274°
2026-04-26 00:18 34.15326 -115.62246 31816 ft 398 kts 274°
2026-04-26 00:18 34.16239 -115.68807 31805 ft 389 kts 264°
2026-04-26 00:19 34.15736 -115.75236 31815 ft 385 kts 259°
2026-04-26 00:19 34.15158 -115.81620 31830 ft 385 kts 258°
2026-04-26 00:20 34.14543 -115.88033 31830 ft 384 kts 258°
2026-04-26 00:20 34.13922 -115.94419 31837 ft 383 kts 258°
2026-04-26 00:21 34.13297 -116.00816 31836 ft 383 kts 258°
2026-04-26 00:21 34.12671 -116.07211 31834 ft 384 kts 258°
2026-04-26 00:22 34.12042 -116.13596 31841 ft 383 kts 258°
2026-04-26 00:22 34.11411 -116.19975 31849 ft 383 kts 258°
2026-04-26 00:23 34.10778 -116.26332 31835 ft 385 kts 258°
2026-04-26 00:23 34.10122 -116.32675 30993 ft 380 kts 257°
2026-04-26 00:23 34.09784 -116.35846 30294 ft 380 kts 258°
2026-04-26 00:24 34.09444 -116.39020 30115 ft 385 kts 258°
2026-04-26 00:24 34.09101 -116.42244 29939 ft 391 kts 258°
2026-04-26 00:24 34.08750 -116.45519 29522 ft 391 kts 258°
2026-04-26 00:24 34.08409 -116.48701 29069 ft 385 kts 257°
2026-04-26 00:25 34.08068 -116.51877 28570 ft 380 kts 258°
2026-04-26 00:25 34.07729 -116.55017 28101 ft 374 kts 257°
2026-04-26 00:25 34.07398 -116.58107 27634 ft 370 kts 258°
2026-04-26 00:25 34.07116 -116.61178 27092 ft 367 kts 258°
2026-04-26 00:26 34.06836 -116.64221 26673 ft 362 kts 258°
2026-04-26 00:26 34.06555 -116.67236 26246 ft 362 kts 258°
2026-04-26 00:26 34.06272 -116.70251 25802 ft 362 kts 258°
2026-04-26 00:26 34.05989 -116.73264 25353 ft 361 kts 258°
2026-04-26 00:27 34.05708 -116.76261 24905 ft 359 kts 258°
2026-04-26 00:27 34.05429 -116.79209 24466 ft 358 kts 258°
2026-04-26 00:27 34.05147 -116.82181 24015 ft 356 kts 258°
2026-04-26 00:27 34.04866 -116.85141 23581 ft 354 kts 258°
2026-04-26 00:28 34.04582 -116.88083 23128 ft 352 kts 257°
2026-04-26 00:28 34.04212 -116.90991 22608 ft 351 kts 256°
2026-04-26 00:28 34.03841 -116.93885 22187 ft 348 kts 256°
2026-04-26 00:28 34.03476 -116.96753 21790 ft 344 kts 256°
2026-04-26 00:29 34.03116 -116.99595 21361 ft 342 kts 257°
2026-04-26 00:29 34.02758 -117.02419 20936 ft 340 kts 257°
2026-04-26 00:29 34.02429 -117.05197 20436 ft 340 kts 257°
2026-04-26 00:29 34.02095 -117.08012 20017 ft 337 kts 257°
2026-04-26 00:30 34.01765 -117.10790 19614 ft 333 kts 257°
2026-04-26 00:30 34.01436 -117.13544 19199 ft 331 kts 257°
2026-04-26 00:30 34.01111 -117.16273 18791 ft 328 kts 257°
2026-04-26 00:30 34.00786 -117.18980 18377 ft 326 kts 257°
2026-04-26 00:31 34.00462 -117.21674 17967 ft 323 kts 257°
2026-04-26 00:31 34.00141 -117.24357 17489 ft 325 kts 257°
2026-04-26 00:31 33.99820 -117.27038 17113 ft 321 kts 257°
2026-04-26 00:31 33.99507 -117.29643 16728 ft 319 kts 257°
2026-04-26 00:32 33.99197 -117.32283 16282 ft 318 kts 257°
2026-04-26 00:32 33.98888 -117.34912 15893 ft 317 kts 257°
2026-04-26 00:32 33.98271 -117.40153 15120 ft 315 kts 258°
2026-04-26 00:33 33.97963 -117.42760 14733 ft 313 kts 257°
2026-04-26 00:33 33.97659 -117.45328 14333 ft 306 kts 258°
2026-04-26 00:33 33.97381 -117.47830 13867 ft 299 kts 262°
2026-04-26 00:33 33.97660 -117.50339 13490 ft 307 kts 280°
2026-04-26 00:34 33.98216 -117.52788 13256 ft 308 kts 279°
2026-04-26 00:34 33.98784 -117.55280 12954 ft 309 kts 279°
2026-04-26 00:34 33.99362 -117.57774 12595 ft 308 kts 279°
2026-04-26 00:34 33.99941 -117.60247 12226 ft 305 kts 280°
2026-04-26 00:35 34.00517 -117.62699 11866 ft 302 kts 280°
2026-04-26 00:35 34.01080 -117.65086 11521 ft 290 kts 280°
2026-04-26 00:35 34.01619 -117.67377 11195 ft 279 kts 280°
2026-04-26 00:35 34.02072 -117.69599 10875 ft 267 kts 270°
2026-04-26 00:36 34.01966 -117.71780 10595 ft 259 kts 260°
2026-04-26 00:36 34.01778 -117.73929 10265 ft 256 kts 261°
2026-04-26 00:36 34.01592 -117.75996 9950 ft 247 kts 261°
2026-04-26 00:36 34.01402 -117.78029 9676 ft 242 kts 261°
2026-04-26 00:37 34.01214 -117.80009 9390 ft 234 kts 261°
2026-04-26 00:37 34.01029 -117.81925 9095 ft 227 kts 261°
2026-04-26 00:37 34.00852 -117.83765 8816 ft 215 kts 261°
2026-04-26 00:37 34.00682 -117.85503 8535 ft 203 kts 261°
2026-04-26 00:38 34.00521 -117.87151 8267 ft 193 kts 261°
2026-04-26 00:38 34.00368 -117.88709 8028 ft 181 kts 261°
2026-04-26 00:38 34.00223 -117.90182 7824 ft 176 kts 261°
2026-04-26 00:38 34.00080 -117.91647 7660 ft 176 kts 261°
2026-04-26 00:39 33.99937 -117.93107 7460 ft 176 kts 261°
2026-04-26 00:39 33.99795 -117.94551 7243 ft 176 kts 262°
2026-04-26 00:39 33.99652 -117.96013 7045 ft 176 kts 262°
2026-04-26 00:39 33.99508 -117.97473 6848 ft 175 kts 262°
2026-04-26 00:40 33.99365 -117.98927 6645 ft 174 kts 262°
2026-04-26 00:40 33.99219 -118.00381 6412 ft 175 kts 261°
2026-04-26 00:40 33.99073 -118.01834 6195 ft 175 kts 262°
2026-04-26 00:40 33.98929 -118.03287 5989 ft 174 kts 262°
2026-04-26 00:41 33.98785 -118.04734 5777 ft 174 kts 262°
2026-04-26 00:41 33.98640 -118.06174 5560 ft 172 kts 262°
2026-04-26 00:41 33.98500 -118.07597 5331 ft 174 kts 262°
2026-04-26 00:41 33.98356 -118.09045 5130 ft 175 kts 262°
2026-04-26 00:42 33.98211 -118.10499 4924 ft 175 kts 262°
2026-04-26 00:42 33.98067 -118.11951 4703 ft 174 kts 262°
2026-04-26 00:42 33.97922 -118.13398 4447 ft 174 kts 262°
2026-04-26 00:42 33.97779 -118.14840 4196 ft 173 kts 262°
2026-04-26 00:43 33.97634 -118.16271 3961 ft 172 kts 262°
2026-04-26 00:43 33.97490 -118.17705 3737 ft 172 kts 262°
2026-04-26 00:43 33.97346 -118.19133 3511 ft 171 kts 262°
2026-04-26 00:43 33.97205 -118.20548 3272 ft 169 kts 262°
2026-04-26 00:44 33.97074 -118.21950 3052 ft 167 kts 262°
2026-04-26 00:44 33.96940 -118.23310 2837 ft 163 kts 262°
2026-04-26 00:44 33.96808 -118.24625 2633 ft 151 kts 262°
2026-04-26 00:44 33.96679 -118.25890 2425 ft 150 kts 262°
2026-04-26 00:45 33.96554 -118.27122 2225 ft 148 kts 263°
2026-04-26 00:45 33.96430 -118.28331 2054 ft 144 kts 262°
2026-04-26 00:45 33.96310 -118.29523 1854 ft 143 kts 263°
2026-04-26 00:45 33.96186 -118.30710 1657 ft 143 kts 263°
2026-04-26 00:46 33.96064 -118.31890 1479 ft 144 kts 263°
2026-04-26 00:46 33.95942 -118.33084 1268 ft 143 kts 264°
2026-04-26 00:46 33.95821 -118.34263 1088 ft 142 kts 263°
2026-04-26 00:46 33.95700 -118.35437 900 ft 141 kts 263°
2026-04-26 00:47 33.95571 -118.36595 707 ft 139 kts 262°
2026-04-26 00:47 33.95453 -118.37752 511 ft 139 kts 263°
2026-04-26 00:47 33.95343 -118.38890 323 ft 133 kts 262°
2026-04-26 00:47 33.95226 -118.39976 171 ft 129 kts 264°
2026-04-26 00:48 33.95126 -118.40990 96 ft 112 kts 262°
2026-04-26 00:48 33.95056 -118.41703 98 ft 58 kts 263°
2026-04-26 00:48 33.95007 -118.42067 96 ft 35 kts 252°
2026-04-26 00:48 33.94904 -118.42232 97 ft 14 kts 219°
2026-04-26 00:49 33.94815 -118.42279 100 ft 15 kts 183°
2026-04-26 00:49 33.94724 -118.42274 97 ft 0 kts 173°
2026-04-26 00:50 33.94724 -118.42273 97 ft 0 kts 173°
2026-04-26 00:50 33.94710 -118.42270 97 ft 5 kts 164°
2026-04-26 00:50 33.94684 -118.42228 96 ft 8 kts 98°
2026-04-26 00:51 33.94693 -118.42148 96 ft 11 kts 77°
2026-04-26 00:51 33.94706 -118.42044 96 ft 14 kts 85°
2026-04-26 00:51 33.94714 -118.41916 96 ft 17 kts 84°
2026-04-26 00:51 33.94729 -118.41765 98 ft 20 kts 83°
2026-04-26 00:52 33.94746 -118.41604 98 ft 18 kts 83°
2026-04-26 00:52 33.94755 -118.41514 96 ft 0 kts 84°
2026-04-26 00:52 33.94755 -118.41512 96 ft 1 kts 84°
2026-04-26 00:53 33.94758 -118.41480 97 ft 8 kts 84°
2026-04-26 00:53 33.94776 -118.41383 97 ft 16 kts 73°
2026-04-26 00:53 33.94800 -118.41223 98 ft 22 kts 82°
2026-04-26 00:53 33.94818 -118.41045 99 ft 16 kts 83°
2026-04-26 00:54 33.94825 -118.40924 97 ft 14 kts 104°
2026-04-26 00:54 33.94743 -118.40898 97 ft 14 kts 197°
2026-04-26 00:54 33.94705 -118.40904 95 ft 0 kts 142°
2026-04-26 00:55 33.94698 -118.40897 96 ft 3 kts 133°
2026-04-26 00:55 33.94682 -118.40865 95 ft 2 kts 117°
2026-04-26 00:55 33.94674 -118.40847 95 ft 0 kts 119°
2026-04-26 00:56 33.94673 -118.40845 95 ft 0 kts 119°